contact:dominique.lefevre@mio.osupytheas.fr, maurice.libes@osupytheas.fr, didier.mallarino@osupytheas.fr
Project:EMSO http://www.emso-fr.org/EMSO-France
Depth: 2436.0 m
Title:EMSO Ligure Ouest : Data MII capteur MICROCAT
DateTime_Computer,Latitude,Longitude,Temperature,Conductivity,Pressure,DateTime_Instrument
DateTime_Computer,Latitude,Longitude,degC,S m-1,dbar,DateTime_Instrument
2023-01-30T00:01:31Z,42.805,6.029,13.3023,4.60080,2470.693,2023-1-30T02:08:01Z
2023-01-30T00:04:35Z,42.805,6.029,13.3026,4.60080,2470.67,2023-1-30T02:11:04Z
2023-01-30T00:07:38Z,42.805,6.029,13.3028,4.60081,2470.693,2023-1-30T02:14:07Z
2023-01-30T00:10:41Z,42.805,6.029,13.3030,4.60081,2470.684,2023-1-30T02:17:10Z
2023-01-30T00:13:44Z,42.805,6.029,13.3029,4.60079,2470.684,2023-1-30T02:20:13Z
2023-01-30T00:16:47Z,42.805,6.029,13.3026,4.60079,2470.646,2023-1-30T02:23:16Z
2023-01-30T00:19:50Z,42.805,6.029,13.3024,4.60079,2470.67,2023-1-30T02:26:19Z
2023-01-30T00:22:53Z,42.805,6.029,13.3026,4.60080,2470.661,2023-1-30T02:29:22Z
2023-01-30T00:25:56Z,42.805,6.029,13.3027,4.60082,2470.684,2023-1-30T02:32:25Z
2023-01-30T00:28:59Z,42.805,6.029,13.3024,4.60081,2470.646,2023-1-30T02:35:29Z
2023-01-30T00:32:02Z,42.805,6.029,13.3026,4.60079,2470.646,2023-1-30T02:38:32Z
2023-01-30T00:35:05Z,42.805,6.029,13.3029,4.60081,2470.707,2023-1-30T02:41:35Z
2023-01-30T00:38:08Z,42.805,6.029,13.3026,4.60079,2470.67,2023-1-30T02:44:38Z
2023-01-30T00:41:12Z,42.805,6.029,13.3027,4.60081,2470.67,2023-1-30T02:47:41Z
2023-01-30T00:44:15Z,42.805,6.029,13.3029,4.60079,2470.684,2023-1-30T02:50:44Z
2023-01-30T00:47:18Z,42.805,6.029,13.3026,4.60080,2470.684,2023-1-30T02:53:47Z
2023-01-30T00:50:21Z,42.805,6.029,13.3027,4.60079,2470.67,2023-1-30T02:56:50Z
2023-01-30T00:53:24Z,42.805,6.029,13.3025,4.60079,2470.707,2023-1-30T02:59:53Z
2023-01-30T00:56:27Z,42.805,6.029,13.3026,4.60079,2470.67,2023-1-30T03:02:56Z
2023-01-30T00:59:30Z,42.805,6.029,13.3026,4.60084,2470.67,2023-1-30T03:05:59Z
2023-01-30T01:02:33Z,42.805,6.029,13.3026,4.60084,2470.707,2023-1-30T03:09:03Z
2023-01-30T01:05:36Z,42.805,6.029,13.3030,4.60081,2470.646,2023-1-30T03:12:06Z
2023-01-30T01:08:39Z,42.805,6.029,13.3024,4.60081,2470.67,2023-1-30T03:15:09Z
2023-01-30T01:11:42Z,42.805,6.029,13.3026,4.60079,2470.684,2023-1-30T03:18:12Z
2023-01-30T01:14:46Z,42.805,6.029,13.3022,4.60081,2470.707,2023-1-30T03:21:15Z
2023-01-30T01:17:49Z,42.805,6.029,13.3027,4.60081,2470.67,2023-1-30T03:24:18Z
2023-01-30T01:20:52Z,42.805,6.029,13.3026,4.60079,2470.646,2023-1-30T03:27:21Z
2023-01-30T01:23:55Z,42.805,6.029,13.3022,4.60080,2470.67,2023-1-30T03:30:24Z
2023-01-30T01:26:58Z,42.805,6.029,13.3029,4.60081,2470.693,2023-1-30T03:33:27Z
2023-01-30T01:30:01Z,42.805,6.029,13.3031,4.60083,2470.646,2023-1-30T03:36:30Z
2023-01-30T01:33:04Z,42.805,6.029,13.3030,4.60080,2470.67,2023-1-30T03:39:33Z
2023-01-30T01:36:07Z,42.805,6.029,13.3028,4.60080,2470.707,2023-1-30T03:42:37Z
2023-01-30T01:39:10Z,42.805,6.029,13.3024,4.60084,2470.693,2023-1-30T03:45:40Z
2023-01-30T01:42:13Z,42.805,6.029,13.3029,4.60081,2470.646,2023-1-30T03:48:43Z
2023-01-30T01:45:16Z,42.805,6.029,13.3025,4.60082,2470.684,2023-1-30T03:51:46Z
2023-01-30T01:48:20Z,42.805,6.029,13.3026,4.60081,2470.67,2023-1-30T03:54:49Z
2023-01-30T01:51:23Z,42.805,6.029,13.3029,4.60081,2470.693,2023-1-30T03:57:52Z
2023-01-30T01:54:26Z,42.805,6.029,13.3026,4.60080,2470.684,2023-1-30T04:00:55Z
2023-01-30T01:57:29Z,42.805,6.029,13.3027,4.60080,2470.707,2023-1-30T04:03:58Z
2023-01-30T02:00:32Z,42.805,6.029,13.3024,4.60084,2470.646,2023-1-30T04:07:01Z
2023-01-30T02:03:35Z,42.805,6.029,13.3027,4.60082,2470.67,2023-1-30T04:10:04Z
2023-01-30T02:06:38Z,42.805,6.029,13.3030,4.60081,2470.637,2023-1-30T04:13:07Z
2023-01-30T02:09:41Z,42.805,6.029,13.3027,4.60081,2470.693,2023-1-30T04:16:10Z
2023-01-30T02:12:44Z,42.805,6.029,13.3026,4.60081,2470.67,2023-1-30T04:19:14Z
2023-01-30T02:15:47Z,42.805,6.029,13.3025,4.60080,2470.67,2023-1-30T04:22:17Z
2023-01-30T02:18:50Z,42.805,6.029,13.3028,4.60079,2470.646,2023-1-30T04:25:20Z
2023-01-30T02:21:53Z,42.805,6.029,13.3025,4.60080,2470.707,2023-1-30T04:28:23Z
2023-01-30T02:24:57Z,42.805,6.029,13.3023,4.60081,2470.684,2023-1-30T04:31:26Z
2023-01-30T02:28:00Z,42.805,6.029,13.3028,4.60079,2470.67,2023-1-30T04:34:29Z
2023-01-30T02:31:03Z,42.805,6.029,13.3029,4.60079,2470.684,2023-1-30T04:37:32Z
2023-01-30T02:34:06Z,42.805,6.029,13.3029,4.60080,2470.661,2023-1-30T04:40:35Z
2023-01-30T02:37:09Z,42.805,6.029,13.3026,4.60081,2470.707,2023-1-30T04:43:38Z
2023-01-30T02:40:12Z,42.805,6.029,13.3026,4.60079,2470.67,2023-1-30T04:46:41Z
2023-01-30T02:43:15Z,42.805,6.029,13.3029,4.60079,2470.646,2023-1-30T04:49:44Z
2023-01-30T02:46:18Z,42.805,6.029,13.3025,4.60081,2470.67,2023-1-30T04:52:48Z
2023-01-30T02:49:21Z,42.805,6.029,13.3025,4.60080,2470.67,2023-1-30T04:55:51Z
2023-01-30T02:52:24Z,42.805,6.029,13.3025,4.60080,2470.684,2023-1-30T04:58:54Z
2023-01-30T02:55:27Z,42.805,6.029,13.3024,4.60082,2470.67,2023-1-30T05:01:57Z
2023-01-30T02:58:31Z,42.805,6.029,13.3027,4.60081,2470.707,2023-1-30T05:05:00Z
2023-01-30T03:01:34Z,42.805,6.029,13.3026,4.60081,2470.684,2023-1-30T05:08:03Z
2023-01-30T03:04:37Z,42.805,6.029,13.3030,4.60081,2470.707,2023-1-30T05:11:06Z
2023-01-30T03:07:40Z,42.805,6.029,13.3025,4.60081,2470.67,2023-1-30T05:14:09Z
2023-01-30T03:10:43Z,42.805,6.029,13.3027,4.60082,2470.67,2023-1-30T05:17:12Z
2023-01-30T03:13:46Z,42.805,6.029,13.3031,4.60081,2470.693,2023-1-30T05:20:15Z
2023-01-30T03:16:49Z,42.805,6.029,13.3026,4.60080,2470.693,2023-1-30T05:23:18Z
2023-01-30T03:19:52Z,42.805,6.029,13.3027,4.60081,2470.684,2023-1-30T05:26:22Z
2023-01-30T03:22:55Z,42.805,6.029,13.3026,4.60081,2470.707,2023-1-30T05:29:25Z
2023-01-30T03:25:58Z,42.805,6.029,13.3027,4.60081,2470.67,2023-1-30T05:32:28Z
2023-01-30T03:29:01Z,42.805,6.029,13.3026,4.60083,2470.637,2023-1-30T05:35:31Z
2023-01-30T03:32:04Z,42.805,6.029,13.3026,4.60082,2470.693,2023-1-30T05:38:34Z
2023-01-30T03:35:08Z,42.805,6.029,13.3028,4.60081,2470.67,2023-1-30T05:41:37Z
2023-01-30T03:38:11Z,42.805,6.029,13.3027,4.60080,2470.73,2023-1-30T05:44:40Z
2023-01-30T03:41:14Z,42.805,6.029,13.3027,4.60080,2470.646,2023-1-30T05:47:43Z
2023-01-30T03:44:17Z,42.805,6.029,13.3024,4.60080,2470.693,2023-1-30T05:50:46Z
2023-01-30T03:47:20Z,42.805,6.029,13.3026,4.60081,2470.693,2023-1-30T05:53:49Z
2023-01-30T03:50:23Z,42.805,6.029,13.3027,4.60080,2470.707,2023-1-30T05:56:52Z
2023-01-30T03:53:26Z,42.805,6.029,13.3026,4.60082,2470.684,2023-1-30T05:59:55Z
2023-01-30T03:56:29Z,42.805,6.029,13.3026,4.60081,2470.661,2023-1-30T06:02:59Z
2023-01-30T03:59:32Z,42.805,6.029,13.3023,4.60080,2470.684,2023-1-30T06:06:02Z
2023-01-30T04:02:35Z,42.805,6.029,13.3028,4.60081,2470.67,2023-1-30T06:09:05Z
2023-01-30T04:05:38Z,42.805,6.029,13.3027,4.60081,2470.684,2023-1-30T06:12:08Z
2023-01-30T04:08:41Z,42.805,6.029,13.3028,4.60081,2470.646,2023-1-30T06:15:11Z
2023-01-30T04:11:45Z,42.805,6.029,13.3029,4.60081,2470.707,2023-1-30T06:18:14Z
2023-01-30T04:14:48Z,42.805,6.029,13.3029,4.60080,2470.67,2023-1-30T06:21:17Z
2023-01-30T04:17:51Z,42.805,6.029,13.3026,4.60081,2470.67,2023-1-30T06:24:20Z
2023-01-30T04:20:54Z,42.805,6.029,13.3027,4.60083,2470.661,2023-1-30T06:27:23Z
2023-01-30T04:23:57Z,42.805,6.029,13.3027,4.60081,2470.693,2023-1-30T06:30:26Z
2023-01-30T04:27:00Z,42.805,6.029,13.3030,4.60083,2470.67,2023-1-30T06:33:29Z
2023-01-30T04:30:03Z,42.805,6.029,13.3030,4.60084,2470.67,2023-1-30T06:36:33Z
2023-01-30T04:33:06Z,42.805,6.029,13.3026,4.60082,2470.684,2023-1-30T06:39:36Z
2023-01-30T04:36:09Z,42.805,6.029,13.3031,4.60081,2470.646,2023-1-30T06:42:39Z
2023-01-30T04:39:12Z,42.805,6.029,13.3025,4.60084,2470.646,2023-1-30T06:45:42Z
2023-01-30T04:42:15Z,42.805,6.029,13.3029,4.60081,2470.67,2023-1-30T06:48:45Z
2023-01-30T04:45:19Z,42.805,6.029,13.3028,4.60081,2470.646,2023-1-30T06:51:48Z
2023-01-30T04:48:22Z,42.805,6.029,13.3029,4.60081,2470.67,2023-1-30T06:54:51Z
2023-01-30T04:51:25Z,42.805,6.029,13.3030,4.60081,2470.67,2023-1-30T06:57:54Z
2023-01-30T04:54:28Z,42.805,6.029,13.3029,4.60082,2470.624,2023-1-30T07:00:57Z
2023-01-30T04:57:31Z,42.805,6.029,13.3028,4.60081,2470.684,2023-1-30T07:04:00Z
2023-01-30T05:00:34Z,42.805,6.029,13.3027,4.60082,2470.67,2023-1-30T07:07:03Z
2023-01-30T05:03:37Z,42.805,6.029,13.3030,4.60082,2470.67,2023-1-30T07:10:07Z
2023-01-30T05:06:40Z,42.805,6.029,13.3033,4.60082,2470.646,2023-1-30T07:13:10Z
2023-01-30T05:09:43Z,42.805,6.029,13.3030,4.60083,2470.624,2023-1-30T07:16:13Z
2023-01-30T05:12:46Z,42.805,6.029,13.3030,4.60082,2470.67,2023-1-30T07:19:16Z
2023-01-30T05:15:49Z,42.805,6.029,13.3029,4.60082,2470.67,2023-1-30T07:22:19Z
2023-01-30T05:18:52Z,42.805,6.029,13.3029,4.60082,2470.684,2023-1-30T07:25:22Z
2023-01-30T05:21:56Z,42.805,6.029,13.3031,4.60081,2470.684,2023-1-30T07:28:25Z
2023-01-30T05:24:59Z,42.805,6.029,13.3028,4.60081,2470.67,2023-1-30T07:31:28Z
2023-01-30T05:28:02Z,42.805,6.029,13.3029,4.60082,2470.684,2023-1-30T07:34:31Z
2023-01-30T05:31:05Z,42.805,6.029,13.3030,4.60081,2470.717,2023-1-30T07:37:34Z
2023-01-30T05:34:08Z,42.805,6.029,13.3030,4.60081,2470.67,2023-1-30T07:40:37Z
2023-01-30T05:37:11Z,42.805,6.029,13.3031,4.60081,2470.661,2023-1-30T07:43:40Z
2023-01-30T05:40:14Z,42.805,6.029,13.3025,4.60082,2470.684,2023-1-30T07:46:44Z
2023-01-30T05:43:17Z,42.805,6.029,13.3029,4.60081,2470.646,2023-1-30T07:49:47Z
2023-01-30T05:46:20Z,42.805,6.029,13.3025,4.60081,2470.67,2023-1-30T07:52:50Z
2023-01-30T05:49:23Z,42.805,6.029,13.3026,4.60082,2470.646,2023-1-30T07:55:53Z
2023-01-30T05:52:26Z,42.805,6.029,13.3026,4.60082,2470.646,2023-1-30T07:58:56Z
2023-01-30T05:55:29Z,42.805,6.029,13.3028,4.60083,2470.646,2023-1-30T08:01:59Z
2023-01-30T05:58:33Z,42.805,6.029,13.3031,4.60081,2470.646,2023-1-30T08:05:02Z
2023-01-30T06:01:36Z,42.805,6.029,13.3033,4.60080,2470.67,2023-1-30T08:08:05Z
2023-01-30T06:04:39Z,42.805,6.029,13.3029,4.60080,2470.67,2023-1-30T08:11:08Z
2023-01-30T06:07:42Z,42.805,6.029,13.3026,4.60081,2470.693,2023-1-30T08:14:11Z
2023-01-30T06:10:45Z,42.805,6.029,13.3028,4.60080,2470.67,2023-1-30T08:17:14Z
2023-01-30T06:13:48Z,42.805,6.029,13.3029,4.60081,2470.661,2023-1-30T08:20:18Z
2023-01-30T06:16:51Z,42.805,6.029,13.3028,4.60080,2470.661,2023-1-30T08:23:21Z
2023-01-30T06:19:54Z,42.805,6.029,13.3024,4.60079,2470.684,2023-1-30T08:26:24Z
2023-01-30T06:22:57Z,42.805,6.029,13.3027,4.60080,2470.646,2023-1-30T08:29:27Z
2023-01-30T06:26:00Z,42.805,6.029,13.3030,4.60079,2470.67,2023-1-30T08:32:30Z
2023-01-30T06:29:03Z,42.805,6.029,13.3028,4.60079,2470.67,2023-1-30T08:35:33Z
2023-01-30T06:32:07Z,42.805,6.029,13.3029,4.60080,2470.661,2023-1-30T08:38:36Z
2023-01-30T06:35:10Z,42.805,6.029,13.3026,4.60080,2470.646,2023-1-30T08:41:39Z
2023-01-30T06:38:13Z,42.805,6.029,13.3024,4.60081,2470.646,2023-1-30T08:44:42Z
2023-01-30T06:41:16Z,42.805,6.029,13.3024,4.60081,2470.661,2023-1-30T08:47:45Z
2023-01-30T06:44:19Z,42.805,6.029,13.3029,4.60081,2470.646,2023-1-30T08:50:48Z
2023-01-30T06:47:22Z,42.805,6.029,13.3028,4.60081,2470.637,2023-1-30T08:53:51Z
2023-01-30T06:50:25Z,42.805,6.029,13.3027,4.60081,2470.67,2023-1-30T08:56:55Z
2023-01-30T06:53:28Z,42.805,6.029,13.3028,4.60081,2470.684,2023-1-30T08:59:58Z
2023-01-30T06:56:31Z,42.805,6.029,13.3028,4.60079,2470.624,2023-1-30T09:03:01Z
2023-01-30T06:59:34Z,42.805,6.029,13.3025,4.60081,2470.624,2023-1-30T09:06:04Z
2023-01-30T07:02:37Z,42.805,6.029,13.3027,4.60081,2470.661,2023-1-30T09:09:07Z
2023-01-30T07:05:40Z,42.805,6.029,13.3028,4.60081,2470.624,2023-1-30T09:12:10Z
2023-01-30T07:08:43Z,42.805,6.029,13.3024,4.60080,2470.646,2023-1-30T09:15:13Z
2023-01-30T07:11:47Z,42.805,6.029,13.3026,4.60081,2470.661,2023-1-30T09:18:16Z
2023-01-30T07:14:50Z,42.805,6.029,13.3027,4.60079,2470.624,2023-1-30T09:21:19Z
2023-01-30T07:17:53Z,42.805,6.029,13.3029,4.60079,2470.646,2023-1-30T09:24:22Z
2023-01-30T07:20:56Z,42.805,6.029,13.3030,4.60079,2470.646,2023-1-30T09:27:25Z
2023-01-30T07:23:59Z,42.805,6.029,13.3030,4.60081,2470.661,2023-1-30T09:30:28Z
2023-01-30T07:27:02Z,42.805,6.029,13.3030,4.60079,2470.624,2023-1-30T09:33:32Z
2023-01-30T07:30:05Z,42.805,6.029,13.3026,4.60081,2470.624,2023-1-30T09:36:35Z
2023-01-30T07:33:08Z,42.805,6.029,13.3028,4.60079,2470.624,2023-1-30T09:39:38Z
2023-01-30T07:36:11Z,42.805,6.029,13.3029,4.60080,2470.624,2023-1-30T09:42:41Z
2023-01-30T07:39:14Z,42.805,6.029,13.3028,4.60080,2470.661,2023-1-30T09:45:44Z
2023-01-30T07:42:17Z,42.805,6.029,13.3026,4.60081,2470.624,2023-1-30T09:48:47Z
2023-01-30T07:45:21Z,42.805,6.029,13.3029,4.60081,2470.637,2023-1-30T09:51:50Z
2023-01-30T07:48:24Z,42.805,6.029,13.3029,4.60082,2470.646,2023-1-30T09:54:53Z
2023-01-30T07:51:27Z,42.805,6.029,13.3028,4.60083,2470.624,2023-1-30T09:57:56Z
2023-01-30T07:54:30Z,42.805,6.029,13.3028,4.60081,2470.624,2023-1-30T10:00:59Z
2023-01-30T07:57:33Z,42.805,6.029,13.3031,4.60082,2470.624,2023-1-30T10:04:02Z
2023-01-30T08:00:36Z,42.805,6.029,13.3027,4.60082,2470.637,2023-1-30T10:07:06Z
2023-01-30T08:03:39Z,42.805,6.029,13.3027,4.60081,2470.637,2023-1-30T10:10:09Z
2023-01-30T08:06:42Z,42.805,6.029,13.3031,4.60082,2470.646,2023-1-30T10:13:12Z
2023-01-30T08:09:45Z,42.805,6.029,13.3031,4.60083,2470.624,2023-1-30T10:16:15Z
2023-01-30T08:12:48Z,42.805,6.029,13.3032,4.60082,2470.624,2023-1-30T10:19:18Z
2023-01-30T08:15:51Z,42.805,6.029,13.3030,4.60083,2470.6,2023-1-30T10:22:21Z
2023-01-30T08:18:55Z,42.805,6.029,13.3030,4.60085,2470.646,2023-1-30T10:25:24Z
2023-01-30T08:21:58Z,42.805,6.029,13.3031,4.60084,2470.646,2023-1-30T10:28:27Z
2023-01-30T08:25:01Z,42.805,6.029,13.3035,4.60085,2470.6,2023-1-30T10:31:30Z
2023-01-30T08:28:04Z,42.805,6.029,13.3029,4.60084,2470.6,2023-1-30T10:34:33Z
2023-01-30T08:31:07Z,42.805,6.029,13.3031,4.60084,2470.624,2023-1-30T10:37:36Z
2023-01-30T08:34:10Z,42.805,6.029,13.3033,4.60084,2470.624,2023-1-30T10:40:40Z
2023-01-30T08:37:13Z,42.805,6.029,13.3035,4.60084,2470.646,2023-1-30T10:43:43Z
2023-01-30T08:40:16Z,42.805,6.029,13.3034,4.60085,2470.637,2023-1-30T10:46:46Z
2023-01-30T08:43:19Z,42.805,6.029,13.3030,4.60084,2470.646,2023-1-30T10:49:49Z
2023-01-30T08:46:22Z,42.805,6.029,13.3031,4.60083,2470.624,2023-1-30T10:52:52Z
2023-01-30T08:49:25Z,42.805,6.029,13.3029,4.60085,2470.646,2023-1-30T10:55:55Z
2023-01-30T08:52:28Z,42.805,6.029,13.3029,4.60082,2470.624,2023-1-30T10:58:58Z
2023-01-30T08:55:32Z,42.805,6.029,13.3027,4.60081,2470.661,2023-1-30T11:02:01Z
2023-01-30T08:58:35Z,42.805,6.029,13.3029,4.60081,2470.624,2023-1-30T11:05:04Z
2023-01-30T09:01:38Z,42.805,6.029,13.3026,4.60082,2470.684,2023-1-30T11:08:07Z
2023-01-30T09:04:41Z,42.805,6.029,13.3031,4.60080,2470.646,2023-1-30T11:11:10Z
2023-01-30T09:07:44Z,42.805,6.029,13.3026,4.60081,2470.637,2023-1-30T11:14:13Z
2023-01-30T09:10:47Z,42.805,6.029,13.3028,4.60080,2470.624,2023-1-30T11:17:17Z
2023-01-30T09:13:50Z,42.805,6.029,13.3031,4.60080,2470.661,2023-1-30T11:20:20Z
2023-01-30T09:16:53Z,42.805,6.029,13.3030,4.60080,2470.637,2023-1-30T11:23:23Z
2023-01-30T09:19:56Z,42.805,6.029,13.3029,4.60081,2470.624,2023-1-30T11:26:26Z
2023-01-30T09:22:59Z,42.805,6.029,13.3024,4.60080,2470.637,2023-1-30T11:29:29Z
2023-01-30T09:26:02Z,42.805,6.029,13.3024,4.60080,2470.6,2023-1-30T11:32:32Z
2023-01-30T09:29:05Z,42.805,6.029,13.3026,4.60083,2470.624,2023-1-30T11:35:35Z
2023-01-30T09:32:09Z,42.805,6.029,13.3026,4.60078,2470.624,2023-1-30T11:38:38Z
2023-01-30T09:35:12Z,42.805,6.029,13.3026,4.60079,2470.624,2023-1-30T11:41:41Z
2023-01-30T09:38:15Z,42.805,6.029,13.3024,4.60081,2470.646,2023-1-30T11:44:44Z
2023-01-30T09:41:18Z,42.805,6.029,13.3026,4.60079,2470.624,2023-1-30T11:47:47Z
2023-01-30T09:44:21Z,42.805,6.029,13.3027,4.60079,2470.624,2023-1-30T11:50:51Z
2023-01-30T09:47:24Z,42.805,6.029,13.3027,4.60079,2470.624,2023-1-30T11:53:54Z
2023-01-30T09:50:27Z,42.805,6.029,13.3030,4.60079,2470.624,2023-1-30T11:56:57Z
2023-01-30T09:53:30Z,42.805,6.029,13.3026,4.60080,2470.661,2023-1-30T12:00:00Z
2023-01-30T09:56:33Z,42.805,6.029,13.3026,4.60081,2470.646,2023-1-30T12:03:03Z
2023-01-30T09:59:36Z,42.805,6.029,13.3028,4.60081,2470.633,2023-1-30T12:06:06Z
2023-01-30T10:02:39Z,42.805,6.029,13.3026,4.60081,2470.624,2023-1-30T12:09:09Z
2023-01-30T10:05:43Z,42.805,6.029,13.3029,4.60081,2470.684,2023-1-30T12:12:12Z
2023-01-30T10:08:46Z,42.805,6.029,13.3026,4.60080,2470.661,2023-1-30T12:15:15Z
2023-01-30T10:11:49Z,42.805,6.029,13.3028,4.60081,2470.661,2023-1-30T12:18:18Z
2023-01-30T10:14:52Z,42.805,6.029,13.3031,4.60080,2470.646,2023-1-30T12:21:21Z
2023-01-30T10:17:55Z,42.805,6.029,13.3031,4.60080,2470.646,2023-1-30T12:24:25Z
2023-01-30T10:20:58Z,42.805,6.029,13.3028,4.60080,2470.661,2023-1-30T12:27:28Z
2023-01-30T10:24:01Z,42.805,6.029,13.3029,4.60080,2470.646,2023-1-30T12:30:31Z
2023-01-30T10:27:04Z,42.805,6.029,13.3030,4.60081,2470.637,2023-1-30T12:33:34Z
2023-01-30T10:30:07Z,42.805,6.029,13.3029,4.60081,2470.624,2023-1-30T12:36:37Z
2023-01-30T10:33:10Z,42.805,6.029,13.3023,4.60080,2470.661,2023-1-30T12:39:40Z
2023-01-30T10:36:13Z,42.805,6.029,13.3032,4.60079,2470.646,2023-1-30T12:42:43Z
2023-01-30T10:39:17Z,42.805,6.029,13.3026,4.60079,2470.661,2023-1-30T12:45:46Z
2023-01-30T10:42:20Z,42.805,6.029,13.3026,4.60080,2470.637,2023-1-30T12:48:49Z
2023-01-30T10:45:23Z,42.805,6.029,13.3026,4.60079,2470.646,2023-1-30T12:51:52Z
2023-01-30T10:48:26Z,42.805,6.029,13.3024,4.60079,2470.684,2023-1-30T12:54:55Z
2023-01-30T10:51:29Z,42.805,6.029,13.3022,4.60079,2470.646,2023-1-30T12:57:59Z
2023-01-30T10:54:32Z,42.805,6.029,13.3024,4.60078,2470.67,2023-1-30T13:01:02Z
2023-01-30T10:57:35Z,42.805,6.029,13.3029,4.60078,2470.646,2023-1-30T13:04:05Z
2023-01-30T11:00:38Z,42.805,6.029,13.3024,4.60079,2470.633,2023-1-30T13:07:08Z
2023-01-30T11:03:41Z,42.805,6.029,13.3027,4.60079,2470.646,2023-1-30T13:10:11Z
2023-01-30T11:06:44Z,42.805,6.029,13.3026,4.60078,2470.693,2023-1-30T13:13:14Z
2023-01-30T11:09:47Z,42.805,6.029,13.3029,4.60079,2470.646,2023-1-30T13:16:17Z
2023-01-30T11:12:50Z,42.805,6.029,13.3029,4.60079,2470.67,2023-1-30T13:19:20Z
2023-01-30T11:15:54Z,42.805,6.029,13.3026,4.60080,2470.646,2023-1-30T13:22:23Z
2023-01-30T11:18:57Z,42.805,6.029,13.3029,4.60079,2470.67,2023-1-30T13:25:26Z
2023-01-30T11:22:00Z,42.805,6.029,13.3027,4.60079,2470.624,2023-1-30T13:28:29Z
2023-01-30T11:25:03Z,42.805,6.029,13.3026,4.60079,2470.67,2023-1-30T13:31:33Z
2023-01-30T11:28:06Z,42.805,6.029,13.3024,4.60079,2470.684,2023-1-30T13:34:36Z
2023-01-30T11:31:09Z,42.805,6.029,13.3026,4.60080,2470.661,2023-1-30T13:37:39Z
2023-01-30T11:34:12Z,42.805,6.029,13.3028,4.60082,2470.707,2023-1-30T13:40:42Z
2023-01-30T11:37:15Z,42.805,6.029,13.3024,4.60081,2470.646,2023-1-30T13:43:45Z
2023-01-30T11:40:18Z,42.805,6.029,13.3026,4.60083,2470.646,2023-1-30T13:46:48Z
2023-01-30T11:43:21Z,42.805,6.029,13.3023,4.60080,2470.646,2023-1-30T13:49:51Z
2023-01-30T11:46:24Z,42.805,6.029,13.3029,4.60081,2470.684,2023-1-30T13:52:54Z
2023-01-30T11:49:28Z,42.805,6.029,13.3026,4.60081,2470.646,2023-1-30T13:55:57Z
2023-01-30T11:52:31Z,42.805,6.029,13.3026,4.60082,2470.684,2023-1-30T13:59:00Z
2023-01-30T11:55:34Z,42.805,6.029,13.3030,4.60082,2470.661,2023-1-30T14:02:03Z
2023-01-30T11:58:37Z,42.805,6.029,13.3026,4.60082,2470.707,2023-1-30T14:05:07Z
2023-01-30T12:01:40Z,42.805,6.029,13.3029,4.60082,2470.67,2023-1-30T14:08:10Z
2023-01-30T12:04:43Z,42.805,6.029,13.3031,4.60083,2470.646,2023-1-30T14:11:13Z
2023-01-30T12:07:46Z,42.805,6.029,13.3029,4.60081,2470.684,2023-1-30T14:14:16Z
2023-01-30T12:10:49Z,42.805,6.029,13.3027,4.60081,2470.67,2023-1-30T14:17:19Z
2023-01-30T12:13:52Z,42.805,6.029,13.3029,4.60080,2470.67,2023-1-30T14:20:22Z
2023-01-30T12:16:55Z,42.805,6.029,13.3026,4.60081,2470.67,2023-1-30T14:23:25Z
2023-01-30T12:19:58Z,42.805,6.029,13.3029,4.60083,2470.684,2023-1-30T14:26:28Z
2023-01-30T12:23:02Z,42.805,6.029,13.3029,4.60081,2470.661,2023-1-30T14:29:31Z
2023-01-30T12:26:05Z,42.805,6.029,13.3028,4.60082,2470.67,2023-1-30T14:32:34Z
2023-01-30T12:29:08Z,42.805,6.029,13.3030,4.60081,2470.67,2023-1-30T14:35:37Z
2023-01-30T12:32:11Z,42.805,6.029,13.3033,4.60084,2470.67,2023-1-30T14:38:41Z
2023-01-30T12:35:14Z,42.805,6.029,13.3030,4.60084,2470.661,2023-1-30T14:41:44Z
2023-01-30T12:38:17Z,42.805,6.029,13.3027,4.60084,2470.633,2023-1-30T14:44:47Z
2023-01-30T12:41:20Z,42.805,6.029,13.3027,4.60081,2470.67,2023-1-30T14:47:50Z
2023-01-30T12:44:23Z,42.805,6.029,13.3033,4.60085,2470.637,2023-1-30T14:50:53Z
2023-01-30T12:47:26Z,42.805,6.029,13.3031,4.60084,2470.646,2023-1-30T14:53:56Z
2023-01-30T12:50:29Z,42.805,6.029,13.3027,4.60084,2470.67,2023-1-30T14:56:59Z
2023-01-30T12:53:32Z,42.805,6.029,13.3030,4.60084,2470.646,2023-1-30T15:00:02Z
2023-01-30T12:56:36Z,42.805,6.029,13.3032,4.60085,2470.67,2023-1-30T15:03:05Z
2023-01-30T12:59:39Z,42.805,6.029,13.3031,4.60084,2470.67,2023-1-30T15:06:08Z
2023-01-30T13:02:42Z,42.805,6.029,13.3032,4.60087,2470.646,2023-1-30T15:09:11Z
2023-01-30T13:05:45Z,42.805,6.029,13.3030,4.60085,2470.646,2023-1-30T15:12:15Z
2023-01-30T13:08:48Z,42.805,6.029,13.3026,4.60084,2470.67,2023-1-30T15:15:18Z
2023-01-30T13:11:51Z,42.805,6.029,13.3029,4.60086,2470.646,2023-1-30T15:18:21Z
2023-01-30T13:14:54Z,42.805,6.029,13.3030,4.60085,2470.646,2023-1-30T15:21:24Z
2023-01-30T13:17:57Z,42.805,6.029,13.3029,4.60090,2470.661,2023-1-30T15:24:27Z
2023-01-30T13:21:00Z,42.805,6.029,13.3030,4.60084,2470.661,2023-1-30T15:27:30Z
2023-01-30T13:24:03Z,42.805,6.029,13.3031,4.60086,2470.67,2023-1-30T15:30:33Z
2023-01-30T13:27:06Z,42.805,6.029,13.3031,4.60086,2470.661,2023-1-30T15:33:36Z
2023-01-30T13:30:10Z,42.805,6.029,13.3032,4.60086,2470.67,2023-1-30T15:36:39Z
2023-01-30T13:33:13Z,42.805,6.029,13.3031,4.60086,2470.661,2023-1-30T15:39:42Z
2023-01-30T13:36:16Z,42.805,6.029,13.3032,4.60087,2470.67,2023-1-30T15:42:45Z
2023-01-30T13:39:19Z,42.805,6.029,13.3033,4.60085,2470.693,2023-1-30T15:45:49Z
2023-01-30T13:42:22Z,42.805,6.029,13.3031,4.60086,2470.661,2023-1-30T15:48:52Z
2023-01-30T13:45:25Z,42.805,6.029,13.3039,4.60087,2470.67,2023-1-30T15:51:55Z
2023-01-30T13:48:28Z,42.805,6.029,13.3034,4.60088,2470.646,2023-1-30T15:54:58Z
2023-01-30T13:51:31Z,42.805,6.029,13.3038,4.60088,2470.693,2023-1-30T15:58:01Z
2023-01-30T13:54:34Z,42.805,6.029,13.3035,4.60089,2470.661,2023-1-30T16:01:04Z
2023-01-30T13:57:37Z,42.805,6.029,13.3033,4.60089,2470.624,2023-1-30T16:04:07Z
2023-01-30T14:00:40Z,42.805,6.029,13.3031,4.60091,2470.684,2023-1-30T16:07:10Z
2023-01-30T14:03:43Z,42.805,6.029,13.3035,4.60090,2470.684,2023-1-30T16:10:13Z
2023-01-30T14:06:47Z,42.805,6.029,13.3034,4.60089,2470.624,2023-1-30T16:13:16Z
2023-01-30T14:09:50Z,42.805,6.029,13.3036,4.60088,2470.67,2023-1-30T16:16:19Z
2023-01-30T14:12:53Z,42.805,6.029,13.3039,4.60091,2470.684,2023-1-30T16:19:23Z
2023-01-30T14:15:56Z,42.805,6.029,13.3036,4.60091,2470.624,2023-1-30T16:22:26Z
2023-01-30T14:18:59Z,42.805,6.029,13.3032,4.60091,2470.67,2023-1-30T16:25:29Z
2023-01-30T14:22:02Z,42.805,6.029,13.3035,4.60091,2470.661,2023-1-30T16:28:32Z
2023-01-30T14:25:05Z,42.805,6.029,13.3036,4.60092,2470.684,2023-1-30T16:31:35Z
2023-01-30T14:28:08Z,42.805,6.029,13.3038,4.60092,2470.684,2023-1-30T16:34:38Z
2023-01-30T14:31:11Z,42.805,6.029,13.3036,4.60092,2470.684,2023-1-30T16:37:41Z
2023-01-30T14:34:14Z,42.805,6.029,13.3037,4.60091,2470.684,2023-1-30T16:40:44Z
2023-01-30T14:37:17Z,42.805,6.029,13.3036,4.60093,2470.637,2023-1-30T16:43:47Z
2023-01-30T14:40:21Z,42.805,6.029,13.3039,4.60092,2470.646,2023-1-30T16:46:50Z
2023-01-30T14:43:24Z,42.805,6.029,13.3035,4.60091,2470.67,2023-1-30T16:49:53Z
2023-01-30T14:46:27Z,42.805,6.029,13.3039,4.60092,2470.661,2023-1-30T16:52:57Z
2023-01-30T14:49:30Z,42.805,6.029,13.3035,4.60092,2470.646,2023-1-30T16:56:00Z
2023-01-30T14:52:33Z,42.805,6.029,13.3034,4.60093,2470.67,2023-1-30T16:59:03Z
2023-01-30T14:55:36Z,42.805,6.029,13.3039,4.60092,2470.684,2023-1-30T17:02:06Z
2023-01-30T14:58:39Z,42.805,6.029,13.3035,4.60092,2470.646,2023-1-30T17:05:09Z
2023-01-30T15:01:42Z,42.805,6.029,13.3038,4.60092,2470.67,2023-1-30T17:08:12Z
2023-01-30T15:04:45Z,42.805,6.029,13.3039,4.60092,2470.684,2023-1-30T17:11:15Z
2023-01-30T15:07:48Z,42.805,6.029,13.3039,4.60092,2470.707,2023-1-30T17:14:18Z
2023-01-30T15:10:51Z,42.805,6.029,13.3036,4.60094,2470.661,2023-1-30T17:17:21Z